Terug naar catalogus

HULIANWANG DIGUI-79

ActiefCommunicatieLEO
NORAD 65311·PAYLOAD·🇨🇳 China

Gelanceerd Aug 25, 2025 vanaf Wenchang Space Launch Site

Loading…

Volgende Passages (komende 24 uur)

TLE

VersSource: Space-Track

Epoch: Sep 14, 2026, 13:25 UTC

1 65311U 25187G   26257.55950416 -.00000100  00000-0  51691-4 0  9994
2 65311  50.0026 245.6111 0000622 337.7830  22.3015 13.29322125 51584

Volg HULIANWANG DIGUI-79 in realtime met AllMySat

Download on the App Store